This is the latest recevied weather packets stored in our database for station/object NK7E-2. If no packets are shown the sender has not sent any weather packets the latest 10 day(s).
| Time | Temp. | Humidity | Pressure | Rain* | Wind** | Luminosity | Snow |
|---|---|---|---|---|---|---|---|
| 1777320916 | 23.33° C | 14% | 1018.8 hPa | 0 mm | - | - | - |
| 1777320316 | 23.33° C | 16% | 1019 hPa | 0 mm | - | - | - |
| 1777319716 | 23.33° C | 16% | 1019 hPa | 0 mm | - | - | - |
| 1777319116 | 22.78° C | 17% | 1019.3 hPa | 0 mm | - | - | - |
| 1777318516 | 23.33° C | 16% | 1019.7 hPa | 0 mm | - | - | - |
| 1777317916 | 23.33° C | 17% | 1020 hPa | 0 mm | - | - | - |
| 1777317316 | 22.78° C | 16% | 1019.8 hPa | 0 mm | - | - | - |
| 1777316716 | 22.22° C | 16% | 1020.2 hPa | 0 mm | - | - | - |
| 1777316116 | 21.67° C | 17% | 1020.2 hPa | 0 mm | - | - | - |
| 1777315516 | 22.22° C | 17% | 1020.4 hPa | 0 mm | - | - | - |
| 1777314916 | 21.67° C | 18% | 1020.6 hPa | 0 mm | - | - | - |
| 1777314316 | 21.11° C | 19% | 1020.6 hPa | 0 mm | - | - | - |
| 1777313716 | 21.11° C | 17% | 1020.6 hPa | 0 mm | - | - | - |
| 1777313116 | 21.11° C | 19% | 1020.3 hPa | 0 mm | - | - | - |
| 1777312516 | 20.56° C | 20% | 1020.8 hPa | 0 mm | - | - | - |
| 1777311916 | 20° C | 22% | 1020.8 hPa | 0 mm | - | - | - |
| 1777311316 | 20° C | 25% | 1021 hPa | 0 mm | - | - | - |
| 1777310716 | 19.44° C | 26% | 1020.8 hPa | 0 mm | - | - | - |
| 1777310116 | 19.44° C | 25% | 1020.8 hPa | 0 mm | - | - | - |
| 1777309516 | 19.44° C | 25% | 1020.7 hPa | 0 mm | - | - | - |
| 1777308916 | 18.89° C | 26% | 1020.6 hPa | 0 mm | - | - | - |
| 1777308316 | 18.33° C | 29% | 1020.7 hPa | 0 mm | - | - | - |
| 1777307716 | 18.33° C | 29% | 1020.8 hPa | 0 mm | - | - | - |
| 1777307116 | 17.78° C | 32% | 1020.7 hPa | 0 mm | - | - | - |
| 1777306516 | 17.78° C | 33% | 1020.6 hPa | 0 mm | - | - | - |
* Rain latest hour (hover to see other rain measurements)
** Current wind speed in m/s (hover to see current wind gust speed)